Change the Weather History Date:

Monday, February 27, 2012

  Actual Average Record
Temperature  
Mean Temperature 46 °F 38 °F  
Max Temperature 60 °F 47 °F 74 °F (1997)
Min Temperature 32 °F 30 °F 6 °F (1900)
Degree Days  
Heating Degree Days 19 27  
Month to date heating degree days 645 793  
Since 1 July heating degree days 2796 3456  
Cooling Degree Days 0 0  
Month to date cooling degree days 0 0  
Year to date cooling degree days 0 0  
Moisture  
Dew Point 29 °F    
Average Humidity 55    
Maximum Humidity 82    
Minimum Humidity 28    
Precipitation  
Precipitation 0.00 in 0.09 in 1.55 in (1958)
Month to date precipitation 0.81 2.55  
Year to date precipitation 3.40 5.58  
Snow  
Snow 0.00 in 0.20 in 3.10 in (1940)
Month to date snowfall 1.2 8.6  
Since 1 July snowfall 4.0 18.8  
Snow Depth 0.00 in    
Sea Level Pressure  
Sea Level Pressure 30.28 in    
Wind  
Wind Speed 10 mph (SSW)    
Max Wind Speed 20 mph    
Max Gust Speed 25 mph    
Visibility 10 miles    
Events      
T = Trace of Precipitation, MM = Missing Value Source: NWS Daily Summary

Daily Weather History Graph

Daily Weather History Graph

Search for Another Location

Airport or City:

Trip Planner

Search our weather history database for the weather conditions in past years. The results will help you decide how hot, cold, wet, or windy it might be!

Date:

Astronomy

Feb. 27, 2012 Rise Set
Actual Time 6:37 AM EST 5:50 PM EST
Civil Twilight 6:10 AM EST 6:17 PM EST
Nautical Twilight 5:39 AM EST 6:48 PM EST
Astronomical Twilight 5:08 AM EST 7:19 PM EST
Moon 9:06 AM EST (2/27) 11:41 PM EST (2/27)
Length of Visible Light 12h 06m
Length of Day
11h 12m
Waxing Crescent, 29% of the Moon is Illuminated
Feb 27
Waxing Crescent
Feb 29
First Quarter
Mar 8
Full
Mar 14
Last Quarter
Mar 22
New

Hourly Weather History & Observations

Time (EST) Temp. Windchill Dew Point Humidity Pressure Visibility Wind Dir Wind Speed Gust Speed Precip Events Conditions
12:54 AM 34.0 °F 29.8 °F 27.0 °F 75% 30.45 in 10.0 mi South 4.6 mph - N/A   Clear
1:54 AM 34.0 °F 28.8 °F 27.0 °F 75% 30.45 in 10.0 mi South 5.8 mph - N/A   Clear
2:54 AM 34.0 °F 29.8 °F 27.0 °F 75% 30.44 in 10.0 mi SSW 4.6 mph - N/A   Clear
3:54 AM 33.1 °F 30.0 °F 25.0 °F 72% 30.43 in 10.0 mi South 3.5 mph - N/A   Clear
4:54 AM 33.1 °F - 26.1 °F 75% 30.43 in 10.0 mi Calm Calm - N/A   Clear
5:54 AM 33.1 °F 28.7 °F 26.1 °F 75% 30.43 in 10.0 mi SSW 4.6 mph - N/A   Clear
6:54 AM 33.1 °F 28.7 °F 28.0 °F 82% 30.42 in 10.0 mi South 4.6 mph - N/A   Clear
7:54 AM 36.0 °F 33.3 °F 30.9 °F 82% 30.41 in 10.0 mi South 3.5 mph - N/A   Clear
8:54 AM 41.0 °F 34.3 °F 32.0 °F 70% 30.39 in 10.0 mi SSW 11.5 mph - N/A   Clear
9:54 AM 46.0 °F 39.6 °F 30.0 °F 54% 30.36 in 10.0 mi SW 15.0 mph 20.7 mph N/A   Clear
10:54 AM 50.0 °F - 28.0 °F 43% 30.33 in 10.0 mi SSW 16.1 mph - N/A   Partly Cloudy
11:54 AM 53.1 °F - 27.0 °F 37% 30.30 in 10.0 mi SSW 15.0 mph 24.2 mph N/A   Partly Cloudy
12:54 PM 55.9 °F - 27.0 °F 33% 30.24 in 10.0 mi SSW 12.7 mph - N/A   Scattered Clouds
1:54 PM 57.9 °F - 28.0 °F 32% 30.19 in 10.0 mi SW 11.5 mph - N/A   Scattered Clouds
2:54 PM 59.0 °F - 27.0 °F 29% 30.17 in 10.0 mi SW 13.8 mph - N/A   Scattered Clouds
3:54 PM 57.9 °F - 27.0 °F 31% 30.14 in 10.0 mi SSW 16.1 mph - N/A   Mostly Cloudy
4:54 PM 57.9 °F - 28.0 °F 32% 30.15 in 10.0 mi SW 16.1 mph - N/A   Scattered Clouds
5:54 PM 55.9 °F - 28.9 °F 36% 30.15 in 10.0 mi SSW 9.2 mph - N/A   Mostly Cloudy
6:54 PM 52.0 °F - 30.9 °F 45% 30.15 in 10.0 mi South 8.1 mph - N/A   Mostly Cloudy
7:54 PM 51.1 °F - 30.9 °F 46% 30.13 in 10.0 mi SSW 8.1 mph - N/A   Scattered Clouds
8:54 PM 53.1 °F - 32.0 °F 45% 30.14 in 10.0 mi SSW 11.5 mph - N/A   Mostly Cloudy
9:54 PM 50.0 °F - 32.0 °F 50% 30.16 in 10.0 mi West 10.4 mph - N/A   Mostly Cloudy
10:54 PM 50.0 °F - 32.0 °F 50% 30.17 in 10.0 mi SW 13.8 mph - N/A   Scattered Clouds
11:54 PM 48.0 °F - 32.0 °F 54% 30.20 in 10.0 mi West 11.5 mph - N/A   Clear